QZS-3 (MICHIBIKI-3) (42917 NORAD) Tracking and Keplerian Element Data

This shows tracking and keplerian element data for the satellite.

Feedback or suggestion? Click here.




ElementValue
Catalog42917
NameQZS-3 (MICHIBIKI-3)
Epoch Orbit912
Epoch Day52.85985537
Epoch Year2020
RAAN152.5721
Inclination0.0588
Eccentricity0.0001082
Argument of Perigee204.2041
Mean Anonmoly231.0545
Mean Motion1.00272044
Decay Rate-3.66E-06
L11 42917U 17048A 20052.85985537 -.00000366 00000-0 00000-0 0 9998
L22 42917 0.0588 152.5721 0001082 204.2041 231.0545 1.00272044 9125

Live tracking and technical data element details for QZS-3 (MICHIBIKI-3) (NORAD 42917). QZS-3 (MICHIBIKI-3) can be tracked NOW for your location showing map with azimuth and elevation plus other details from your city location.

Track the satellite on the map from your city or location and see movement details for azimuth, elevation, latitude, longitude, range, height, and movement on the map or in text.







IsCatalogInMostPopularTable: catalog: 42917, numindb: 397
Update: records affected: 1



GetName: 42917 QZS-3 (MICHIBIKI-3)

Hit Count: updated at: Sun, 23 Feb 2020 07:38:40 GMT